Погода в Сагайдаке

Украина / Полтавская область     49°43′42″N   33°58′59″E
темп.,
°C
ветер,
м/с
пор.,
м/с
влажн.,
%
обл.,
%
осадки,
мм/ч
давл.,
гПа
погр.,
м
14 мая, пт
пт1400:00+12вюв3665100 0.0 1012105
03:00+10в467480 0.0 101195
06:00+11вюв3889100 0.1 1010171
09:00+17юв5777100 0.1 1009478
12:00+22ююв6862100 0.0 10081396
15:00+23ю7952100 0.0 10071675
18:00+20ю51064100 0.0 1008530
21:00+15ю4107881 0.0 1009169
15 мая, сб
сб1500:00+13ююз37875 0.0 1009111
03:00+11ю479275 0.0 1010127
06:00+11ю37912 0.0 1011167
09:00+17ююз47711 0.0 1011559
12:00+21ююз68572 0.1 10111642
15:00+21юз575484 0.1 10111579
18:00+19зсз3570100 0.0 1012171
21:00+17с1168100 0.0 101213
16 мая, вс
вс1600:00+16с227148 0.0 101221
03:00+13ссв22858 0.0 101310
06:00+13с22840 0.0 101322
09:00+19св226633 0.0 1014397
12:00+23всв225094 0.0 10131539
15:00+24вюв2345100 0.0 10121922
18:00+23всв3455100 0.0 1010746
21:00+17св467037 0.0 101078
17 мая, пн
пн1700:00+16св4878100 0.0 1008135
03:00+16ссв3694100 1.7 1007122
06:00+16св3692100 0.6 1005139
09:00+20св1174100 0.6 1004435
12:00+22юв346698 0.0 1004918
15:00+24юз5561100 0.0 10041458
18:00+21з567723 1.3 1006766
21:00+16сз35946 1.7 1007102
18 мая, вт
вт1800:00+14зсз359747 0.0 1008106
03:00+13сз369699 0.0 1009138
06:00+12ссз259578 0.0 1010137
09:00+17зсз337673 0.0 1011529
12:00+19з33718 0.0 1012745
15:00+22зюз346179 0.5 10111510
18:00+21юз345933 0.1 1011618
21:00+15ю11731 0.1 101111